TimeCDT,TemperatureF,Dew PointF,Humidity,Sea Level PressureIn,VisibilityMPH,Wind Direction,Wind SpeedMPH,Gust SpeedMPH,PrecipitationIn,Events,Conditions,WindDirDegrees,DateUTC
12:15 AM,55.9,42.6,61,30.24,10.0,ENE,5.8,-,N/A,,Clear,70,2013-05-24 05:15:00
12:35 AM,55.2,42.8,63,30.24,10.0,ENE,8.1,-,N/A,,Clear,60,2013-05-24 05:35:00
12:55 AM,54.7,42.8,64,30.24,10.0,ENE,9.2,-,N/A,,Clear,70,2013-05-24 05:55:00
1:15 AM,54.9,43.0,64,30.24,10.0,East,8.1,-,N/A,,Clear,80,2013-05-24 06:15:00
1:35 AM,53.1,43.0,69,30.24,10.0,East,4.6,-,N/A,,Clear,90,2013-05-24 06:35:00
1:55 AM,51.4,43.0,73,30.23,10.0,ENE,10.4,-,N/A,,Clear,70,2013-05-24 06:55:00
2:15 AM,53.8,43.2,67,30.23,10.0,East,9.2,-,N/A,,Clear,80,2013-05-24 07:15:00
2:35 AM,51.8,43.3,73,30.23,10.0,East,6.9,-,N/A,,Clear,100,2013-05-24 07:35:00
2:55 AM,51.8,43.7,74,30.24,10.0,East,6.9,-,N/A,,Clear,100,2013-05-24 07:55:00
3:15 AM,50.0,43.2,77,30.25,10.0,SE,3.5,-,N/A,,Clear,130,2013-05-24 08:15:00
3:35 AM,48.6,42.8,80,30.24,10.0,East,9.2,-,N/A,,Clear,90,2013-05-24 08:35:00
3:55 AM,49.5,43.2,79,30.23,10.0,East,9.2,-,N/A,,Clear,100,2013-05-24 08:55:00
4:15 AM,51.3,43.3,74,30.24,10.0,ESE,6.9,-,N/A,,Clear,120,2013-05-24 09:15:00
4:35 AM,51.1,43.5,75,30.26,10.0,SE,8.1,-,N/A,,Clear,130,2013-05-24 09:35:00
4:55 AM,49.5,43.0,78,30.26,10.0,SE,6.9,-,N/A,,Clear,130,2013-05-24 09:55:00
5:15 AM,48.2,42.8,82,30.27,10.0,SE,5.8,-,N/A,,Clear,130,2013-05-24 10:15:00
5:35 AM,47.5,42.6,83,30.27,10.0,SE,5.8,-,N/A,,Clear,140,2013-05-24 10:35:00
5:55 AM,47.3,42.8,84,30.27,10.0,SE,4.6,-,N/A,,Scattered Clouds,130,2013-05-24 10:55:00
6:15 AM,47.7,43.3,85,30.27,10.0,SE,4.6,-,N/A,,Mostly Cloudy,140,2013-05-24 11:15:00
6:35 AM,50.7,45.0,81,30.28,10.0,SE,6.9,-,N/A,,Overcast,130,2013-05-24 11:35:00
6:55 AM,51.8,45.3,79,30.28,10.0,SE,8.1,-,N/A,,Mostly Cloudy,130,2013-05-24 11:55:00
7:15 AM,52.7,45.5,76,30.27,10.0,SE,9.2,-,N/A,,Mostly Cloudy,140,2013-05-24 12:15:00
7:35 AM,53.6,45.9,75,30.28,10.0,SE,8.1,-,N/A,,Mostly Cloudy,140,2013-05-24 12:35:00
7:55 AM,54.1,46.8,76,30.28,10.0,SE,9.2,-,N/A,,Mostly Cloudy,130,2013-05-24 12:55:00
8:15 AM,55.4,47.3,74,30.28,10.0,SE,12.7,-,N/A,,Overcast,130,2013-05-24 13:15:00
8:35 AM,56.8,48.0,72,30.28,7.0,SE,12.7,-,N/A,,Overcast,140,2013-05-24 13:35:00
8:55 AM,56.5,49.8,78,30.28,10.0,SE,9.2,-,0.01,Rain,Light Rain,140,2013-05-24 13:55:00
9:15 AM,58.6,50.4,74,30.27,10.0,SSE,13.8,-,N/A,,Mostly Cloudy,150,2013-05-24 14:15:00
9:35 AM,61.3,50.5,68,30.27,10.0,SSE,16.1,21.9,N/A,,Scattered Clouds,150,2013-05-24 14:35:00
9:55 AM,63.3,48.9,59,30.26,10.0,SE,20.7,25.3,N/A,,Mostly Cloudy,140,2013-05-24 14:55:00
10:15 AM,63.0,48.4,59,30.25,10.0,SSE,21.9,28.8,N/A,,Overcast,160,2013-05-24 15:15:00
10:35 AM,65.8,47.7,52,30.24,10.0,SSE,19.6,33.4,N/A,,Scattered Clouds,150,2013-05-24 15:35:00
10:55 AM,66.2,47.5,51,30.23,10.0,SSE,20.7,31.1,N/A,,Clear,150,2013-05-24 15:55:00
11:15 AM,67.6,48.0,49,30.23,10.0,SSE,21.9,27.6,N/A,,Clear,150,2013-05-24 16:15:00
11:35 AM,67.3,47.1,48,30.24,10.0,SSE,18.4,28.8,N/A,,Scattered Clouds,160,2013-05-24 16:35:00
11:55 AM,68.0,47.3,47,30.24,10.0,SSE,24.2,29.9,N/A,,Scattered Clouds,160,2013-05-24 16:55:00
12:15 PM,70.0,47.7,45,30.24,10.0,SSE,19.6,33.4,N/A,,Scattered Clouds,160,2013-05-24 17:15:00
12:35 PM,70.2,48.0,45,30.24,10.0,South,23.0,28.8,N/A,,Mostly Cloudy,170,2013-05-24 17:35:00
12:55 PM,70.5,47.5,44,30.23,10.0,South,17.3,25.3,N/A,,Overcast,190,2013-05-24 17:55:00
1:15 PM,69.8,46.9,44,30.22,10.0,South,15.0,27.6,N/A,,Overcast,170,2013-05-24 18:15:00
1:35 PM,69.1,45.9,43,30.21,10.0,SSE,17.3,24.2,N/A,,Overcast,160,2013-05-24 18:35:00
1:55 PM,69.4,45.7,42,30.20,10.0,SSE,19.6,25.3,N/A,,Overcast,160,2013-05-24 18:55:00
2:15 PM,70.0,45.1,41,30.20,10.0,SSE,19.6,26.5,N/A,,Overcast,150,2013-05-24 19:15:00
2:35 PM,70.3,45.5,41,30.19,10.0,SSE,17.3,25.3,N/A,,Overcast,160,2013-05-24 19:35:00
2:55 PM,70.5,45.7,41,30.17,10.0,SSE,18.4,27.6,N/A,,Overcast,160,2013-05-24 19:55:00
3:15 PM,72.0,45.5,39,30.15,10.0,SSE,20.7,28.8,N/A,,Overcast,160,2013-05-24 20:15:00
3:35 PM,72.9,45.3,37,30.14,10.0,SSE,21.9,33.4,N/A,,Overcast,160,2013-05-24 20:35:00
3:55 PM,73.6,45.9,37,30.12,10.0,SSE,23.0,32.2,N/A,,Scattered Clouds,160,2013-05-24 20:55:00
4:15 PM,73.8,46.8,38,30.10,10.0,SSE,26.5,32.2,N/A,,Clear,150,2013-05-24 21:15:00
4:35 PM,74.3,47.5,39,30.10,10.0,SSE,21.9,32.2,N/A,,Clear,160,2013-05-24 21:35:00
4:55 PM,75.4,47.8,38,30.09,10.0,SSE,24.2,32.2,N/A,,Clear,150,2013-05-24 21:55:00
5:15 PM,75.2,48.4,39,30.08,10.0,South,26.5,32.2,N/A,,Clear,170,2013-05-24 22:15:00
5:35 PM,74.5,48.4,40,30.08,10.0,SSE,25.3,32.2,N/A,,Clear,160,2013-05-24 22:35:00
5:55 PM,74.3,48.2,40,30.07,10.0,SSE,25.3,32.2,N/A,,Clear,160,2013-05-24 22:55:00
6:15 PM,73.6,48.4,41,30.04,10.0,SSE,25.3,33.4,N/A,,Clear,150,2013-05-24 23:15:00
6:35 PM,73.6,48.6,41,30.02,10.0,SSE,26.5,33.4,N/A,,Clear,160,2013-05-24 23:35:00
6:55 PM,73.0,48.6,42,30.02,10.0,SSE,24.2,33.4,N/A,,Clear,150,2013-05-24 23:55:00
7:15 PM,73.0,49.1,43,30.04,10.0,SSE,24.2,29.9,N/A,,Clear,150,2013-05-25 00:15:00
7:35 PM,73.0,49.8,44,30.04,10.0,SSE,19.6,31.1,N/A,,Clear,160,2013-05-25 00:35:00
7:55 PM,72.7,49.6,44,30.04,10.0,SSE,18.4,-,N/A,,Scattered Clouds,150,2013-05-25 00:55:00
8:15 PM,71.6,49.5,45,30.03,10.0,SSE,17.3,-,N/A,,Scattered Clouds,150,2013-05-25 01:15:00
8:35 PM,71.1,49.6,47,30.04,10.0,SSE,9.2,-,N/A,,Mostly Cloudy,150,2013-05-25 01:35:00
8:55 PM,70.7,49.5,47,30.07,10.0,South,15.0,-,N/A,,Overcast,170,2013-05-25 01:55:00
9:15 PM,70.0,49.8,49,30.08,10.0,SSE,11.5,-,N/A,,Overcast,150,2013-05-25 02:15:00
9:35 PM,69.8,50.0,49,30.09,10.0,SSE,13.8,-,N/A,,Overcast,150,2013-05-25 02:35:00
9:55 PM,69.4,50.4,51,30.10,10.0,SE,12.7,18.4,N/A,,Overcast,140,2013-05-25 02:55:00
10:15 PM,69.3,50.4,51,30.11,10.0,SE,13.8,-,N/A,,Overcast,140,2013-05-25 03:15:00
10:35 PM,68.9,50.7,52,30.11,10.0,SE,12.7,-,N/A,,Overcast,130,2013-05-25 03:35:00
10:55 PM,68.5,50.2,52,30.12,10.0,ESE,13.8,-,N/A,,Overcast,120,2013-05-25 03:55:00
11:15 PM,68.2,50.0,52,30.12,10.0,SE,12.7,-,N/A,,Overcast,130,2013-05-25 04:15:00
11:35 PM,67.6,49.6,52,30.11,10.0,SE,15.0,-,N/A,,Overcast,130,2013-05-25 04:35:00
11:55 PM,67.3,49.5,53,30.10,10.0,SE,16.1,-,N/A,,Overcast,130,2013-05-25 04:55:00